ACA7031 KMSP-KPIE

Flight info

Callsign ACA7031
Flight time N/A
Altitude 39000
Route RST1 ALO STL J151 GETME VLKNN MGMRY ACORI BANGZ2
Aircraft A320/M-SDE3FGHIRWY/LB1

Departure

Time N/A
Airport Minneapolis–Saint Paul International Airport / Wold–Chamberlain Field (KMSP)

Arrival

Time 2026-05-05 01:06
Airport St. Petersburg Clearwater International Airport (KPIE)
Time Latitude Longitude Altitude Speed Heading
2026-05-05 00:10 32.90447 -86.59059 39006 ft 514 kts 168°
2026-05-05 00:10 32.83629 -86.56334 38987 ft 514 kts 168°
2026-05-05 00:11 32.76880 -86.53639 39012 ft 514 kts 168°
2026-05-05 00:11 32.70084 -86.50926 39020 ft 513 kts 168°
2026-05-05 00:12 32.63357 -86.48241 39016 ft 513 kts 168°
2026-05-05 00:12 32.56568 -86.45546 38980 ft 512 kts 168°
2026-05-05 00:13 32.49839 -86.42883 38979 ft 513 kts 168°
2026-05-05 00:13 32.43054 -86.40198 38983 ft 514 kts 168°
2026-05-05 00:14 32.36262 -86.37511 38990 ft 514 kts 168°
2026-05-05 00:14 32.29460 -86.34827 38995 ft 515 kts 169°
2026-05-05 00:15 32.22778 -86.31633 38998 ft 526 kts 155°
2026-05-05 00:15 32.16894 -86.26468 39000 ft 534 kts 141°
2026-05-05 00:16 32.11309 -86.20670 39001 ft 535 kts 141°
2026-05-05 00:16 32.05689 -86.14885 39044 ft 534 kts 141°
2026-05-05 00:17 32.00111 -86.09169 39033 ft 533 kts 141°
2026-05-05 00:17 31.94529 -86.03445 39051 ft 532 kts 141°
2026-05-05 00:18 31.88937 -85.97712 39052 ft 532 kts 141°
2026-05-05 00:18 31.83350 -85.91984 39054 ft 532 kts 141°
2026-05-05 00:19 31.77751 -85.86268 39048 ft 532 kts 141°
2026-05-05 00:19 31.72193 -85.80614 39016 ft 532 kts 141°
2026-05-05 00:20 31.66576 -85.74926 39016 ft 532 kts 141°
2026-05-05 00:20 31.60966 -85.69253 39032 ft 532 kts 141°
2026-05-05 00:21 31.55347 -85.63572 39038 ft 532 kts 141°
2026-05-05 00:21 31.49770 -85.57934 39036 ft 532 kts 141°
2026-05-05 00:22 31.44216 -85.52196 39019 ft 533 kts 137°
2026-05-05 00:22 31.38734 -85.46351 39049 ft 532 kts 141°
2026-05-05 00:23 31.33143 -85.40745 39092 ft 532 kts 142°
2026-05-05 00:23 31.27540 -85.35113 39100 ft 530 kts 141°
2026-05-05 00:24 31.21992 -85.29420 39081 ft 529 kts 141°
2026-05-05 00:24 31.16474 -85.23719 39071 ft 528 kts 141°
2026-05-05 00:25 31.10952 -85.18043 39044 ft 527 kts 141°
2026-05-05 00:25 31.05457 -85.12446 39050 ft 527 kts 141°
2026-05-05 00:26 30.99925 -85.06832 39048 ft 526 kts 141°
2026-05-05 00:26 30.94399 -85.01206 39071 ft 525 kts 141°
2026-05-05 00:27 30.88942 -84.95639 39071 ft 523 kts 141°
2026-05-05 00:27 30.83458 -84.90060 39028 ft 522 kts 142°
2026-05-05 00:28 30.77976 -84.84512 39043 ft 521 kts 142°
2026-05-05 00:28 30.72527 -84.79035 39050 ft 520 kts 142°
2026-05-05 00:29 30.67040 -84.73535 39046 ft 520 kts 142°
2026-05-05 00:29 30.61541 -84.68044 39047 ft 519 kts 142°
2026-05-05 00:30 30.56082 -84.62605 39066 ft 518 kts 142°
2026-05-05 00:30 30.50626 -84.57155 39065 ft 516 kts 142°
2026-05-05 00:31 30.45185 -84.51729 39061 ft 515 kts 143°
2026-05-05 00:31 30.39731 -84.46314 39060 ft 514 kts 143°
2026-05-05 00:32 30.34318 -84.40961 39057 ft 514 kts 143°
2026-05-05 00:32 30.28883 -84.35569 39057 ft 513 kts 142°
2026-05-05 00:33 30.23459 -84.30170 39011 ft 513 kts 143°
2026-05-05 00:33 30.18037 -84.24817 39054 ft 512 kts 143°
2026-05-05 00:34 30.12656 -84.19505 39066 ft 510 kts 143°
2026-05-05 00:34 30.07262 -84.14174 39065 ft 509 kts 143°
2026-05-05 00:35 30.01872 -84.08859 39063 ft 508 kts 143°
2026-05-05 00:35 29.96490 -84.03559 39021 ft 508 kts 143°
2026-05-05 00:36 29.91136 -83.98289 39026 ft 508 kts 144°
2026-05-05 00:36 29.85746 -83.93013 39033 ft 508 kts 144°
2026-05-05 00:37 29.80125 -83.88201 38919 ft 506 kts 156°
2026-05-05 00:37 29.77004 -83.86144 38683 ft 513 kts 156°
2026-05-05 00:37 29.73918 -83.84141 38415 ft 514 kts 156°
2026-05-05 00:37 29.70794 -83.82127 38147 ft 514 kts 156°
2026-05-05 00:38 29.67685 -83.80131 37721 ft 509 kts 157°
2026-05-05 00:38 29.64608 -83.78159 37306 ft 502 kts 157°
2026-05-05 00:38 29.61558 -83.76203 36809 ft 498 kts 157°
2026-05-05 00:38 29.58575 -83.74295 36314 ft 494 kts 157°
2026-05-05 00:39 29.55579 -83.72379 35819 ft 492 kts 157°
2026-05-05 00:39 29.52596 -83.70471 35306 ft 490 kts 157°
2026-05-05 00:39 29.49620 -83.68566 34798 ft 488 kts 156°
2026-05-05 00:39 29.46655 -83.66658 34281 ft 488 kts 156°
2026-05-05 00:40 29.43695 -83.64752 33735 ft 487 kts 156°
2026-05-05 00:40 29.40742 -83.62853 33229 ft 484 kts 156°
2026-05-05 00:40 29.37807 -83.60977 32684 ft 481 kts 156°
2026-05-05 00:40 29.34852 -83.59228 32201 ft 473 kts 163°
2026-05-05 00:41 29.31832 -83.57986 31721 ft 462 kts 171°
2026-05-05 00:41 29.28750 -83.56939 31239 ft 459 kts 171°
2026-05-05 00:41 29.25694 -83.55903 30758 ft 456 kts 171°
2026-05-05 00:41 29.22653 -83.54875 30290 ft 453 kts 171°
2026-05-05 00:42 29.19636 -83.53855 29776 ft 449 kts 171°
2026-05-05 00:42 29.16653 -83.52847 29339 ft 443 kts 171°
2026-05-05 00:42 29.13746 -83.51868 28900 ft 438 kts 171°
2026-05-05 00:42 29.10835 -83.50882 28474 ft 432 kts 171°
2026-05-05 00:43 29.07963 -83.49906 28014 ft 427 kts 171°
2026-05-05 00:43 29.05127 -83.48943 27616 ft 422 kts 171°
2026-05-05 00:43 29.02321 -83.47994 27183 ft 418 kts 171°
2026-05-05 00:43 28.99536 -83.47060 26738 ft 415 kts 171°
2026-05-05 00:44 28.96828 -83.46009 26281 ft 418 kts 162°
2026-05-05 00:44 28.94167 -83.44644 25801 ft 417 kts 162°
2026-05-05 00:44 28.91527 -83.43280 25310 ft 416 kts 161°
2026-05-05 00:44 28.88897 -83.41917 24816 ft 414 kts 161°
2026-05-05 00:45 28.86270 -83.40553 24303 ft 414 kts 161°
2026-05-05 00:45 28.83646 -83.39188 23781 ft 413 kts 161°
2026-05-05 00:45 28.81056 -83.37848 23216 ft 412 kts 161°
2026-05-05 00:45 28.78449 -83.36509 22684 ft 409 kts 161°
2026-05-05 00:46 28.75858 -83.35181 22206 ft 405 kts 161°
2026-05-05 00:46 28.73311 -83.33873 21708 ft 402 kts 161°
2026-05-05 00:46 28.70765 -83.32556 21220 ft 400 kts 160°
2026-05-05 00:46 28.68245 -83.31248 20808 ft 395 kts 160°
2026-05-05 00:47 28.65746 -83.29958 20362 ft 391 kts 160°
2026-05-05 00:47 28.64102 -83.29112 19999 ft 391 kts 160°
2026-05-05 00:47 28.60869 -83.27449 19319 ft 375 kts 160°
2026-05-05 00:47 28.58530 -83.26249 18862 ft 362 kts 161°
2026-05-05 00:48 28.57027 -83.25478 18559 ft 354 kts 161°
2026-05-05 00:48 28.54818 -83.24346 18113 ft 342 kts 161°
2026-05-05 00:48 28.51996 -83.22898 17553 ft 326 kts 160°
2026-05-05 00:48 28.50606 -83.22185 17293 ft 324 kts 160°
2026-05-05 00:49 28.48541 -83.21129 16887 ft 324 kts 160°
2026-05-05 00:49 28.46483 -83.20080 16511 ft 324 kts 160°
2026-05-05 00:49 28.44448 -83.19043 16135 ft 324 kts 160°
2026-05-05 00:49 28.42390 -83.17991 15747 ft 325 kts 160°
2026-05-05 00:50 28.40331 -83.16937 15372 ft 325 kts 160°
2026-05-05 00:50 28.38266 -83.15884 14986 ft 325 kts 160°
2026-05-05 00:50 28.36198 -83.14844 14596 ft 325 kts 160°
2026-05-05 00:50 28.34122 -83.13808 14208 ft 325 kts 159°
2026-05-05 00:51 28.32073 -83.12789 13824 ft 325 kts 159°
2026-05-05 00:51 28.30001 -83.11761 13396 ft 324 kts 159°
2026-05-05 00:51 28.27974 -83.10623 13049 ft 323 kts 149°
2026-05-05 00:51 28.26221 -83.09053 13008 ft 319 kts 141°
2026-05-05 00:52 28.24545 -83.07403 13006 ft 319 kts 142°
2026-05-05 00:52 28.22863 -83.05764 12994 ft 318 kts 142°
2026-05-05 00:52 28.21272 -83.04063 12460 ft 314 kts 131°
2026-05-05 00:52 28.20114 -83.01996 11848 ft 314 kts 115°
2026-05-05 00:53 28.19489 -82.99623 11245 ft 312 kts 98°
2026-05-05 00:53 28.19327 -82.97175 10635 ft 309 kts 94°
2026-05-05 00:53 28.19194 -82.94749 10042 ft 306 kts 97°
2026-05-05 00:53 28.18594 -82.92506 9566 ft 300 kts 123°
2026-05-05 00:54 28.17220 -82.90800 9210 ft 290 kts 149°
2026-05-05 00:54 28.15388 -82.89960 8835 ft 281 kts 171°
2026-05-05 00:54 28.13469 -82.89586 8443 ft 278 kts 174°
2026-05-05 00:54 28.11558 -82.89274 8056 ft 276 kts 174°
2026-05-05 00:55 28.09666 -82.88989 7664 ft 273 kts 173°
2026-05-05 00:55 28.07803 -82.88730 7275 ft 271 kts 174°
2026-05-05 00:55 28.05934 -82.88484 6917 ft 268 kts 174°
2026-05-05 00:55 28.04084 -82.88259 6543 ft 265 kts 174°
2026-05-05 00:56 28.02251 -82.88052 6121 ft 264 kts 174°
2026-05-05 00:56 28.00444 -82.87868 5684 ft 263 kts 174°
2026-05-05 00:56 27.98621 -82.87699 5240 ft 262 kts 174°
2026-05-05 00:56 27.96807 -82.87553 5026 ft 262 kts 173°
2026-05-05 00:57 27.94981 -82.87423 5023 ft 263 kts 174°
2026-05-05 00:57 27.93143 -82.87293 5025 ft 264 kts 174°
2026-05-05 00:57 27.91312 -82.87166 4737 ft 262 kts 174°
2026-05-05 00:57 27.89492 -82.87044 4255 ft 261 kts 174°
2026-05-05 00:58 27.87700 -82.86928 3771 ft 261 kts 174°
2026-05-05 00:58 27.85875 -82.86824 3319 ft 262 kts 174°
2026-05-05 00:58 27.84056 -82.86724 2854 ft 262 kts 174°
2026-05-05 00:58 27.82247 -82.86514 2352 ft 259 kts 160°
2026-05-05 00:59 27.80645 -82.85625 2037 ft 255 kts 145°
2026-05-05 00:59 27.79149 -82.84560 2001 ft 258 kts 143°
2026-05-05 00:59 27.77634 -82.83462 1992 ft 260 kts 143°
2026-05-05 00:59 27.76104 -82.82350 1994 ft 262 kts 143°
2026-05-05 01:00 27.74662 -82.81137 1986 ft 248 kts 127°
2026-05-05 01:00 27.73881 -82.79529 1989 ft 224 kts 107°
2026-05-05 01:00 27.73407 -82.77923 1988 ft 210 kts 105°
2026-05-05 01:00 27.73013 -82.76374 1989 ft 200 kts 104°
2026-05-05 01:01 27.72671 -82.74891 1993 ft 196 kts 104°
2026-05-05 01:01 27.72413 -82.73386 2024 ft 196 kts 89°
2026-05-05 01:01 27.72814 -82.71904 2028 ft 201 kts 67°
2026-05-05 01:01 27.73481 -82.70507 2030 ft 202 kts 64°
2026-05-05 01:02 27.74218 -82.69147 2031 ft 206 kts 54°
2026-05-05 01:02 27.75420 -82.68234 2030 ft 210 kts 28°
2026-05-05 01:02 27.76741 -82.67680 2022 ft 199 kts 24°
2026-05-05 01:02 27.77999 -82.67204 2052 ft 184 kts 24°
2026-05-05 01:03 27.79232 -82.66867 1996 ft 183 kts
2026-05-05 01:03 27.80503 -82.67024 1852 ft 180 kts 357°
2026-05-05 01:03 27.81658 -82.67233 1656 ft 159 kts 358°
2026-05-05 01:03 27.82705 -82.67416 1449 ft 147 kts 359°
2026-05-05 01:04 27.83699 -82.67587 1279 ft 142 kts 359°
2026-05-05 01:04 27.85620 -82.67915 923 ft 139 kts 358°
2026-05-05 01:04 27.86577 -82.68079 742 ft 138 kts 355°
2026-05-05 01:05 27.87510 -82.68241 585 ft 132 kts 355°
2026-05-05 01:05 27.88413 -82.68400 392 ft 129 kts 355°
2026-05-05 01:05 27.89296 -82.68544 211 ft 126 kts 352°
2026-05-05 01:05 27.90161 -82.68690 32 ft 122 kts 351°
2026-05-05 01:06 27.90885 -82.68816 22 ft 82 kts 351°
2026-05-05 01:06 27.91280 -82.68886 20 ft 37 kts 351°
2026-05-05 01:06 27.91482 -82.68922 21 ft 22 kts 351°
2026-05-05 01:06 27.91558 -82.68964 21 ft 10 kts 274°
2026-05-05 01:07 27.91549 -82.69027 25 ft 7 kts 264°
2026-05-05 01:07 27.91543 -82.69067 23 ft 4 kts 249°
2026-05-05 01:07 27.91527 -82.69080 25 ft 2 kts 206°
2026-05-05 01:07 27.91494 -82.69081 24 ft 12 kts 173°
2026-05-05 01:08 27.91381 -82.69061 25 ft 17 kts 171°
2026-05-05 01:08 27.91268 -82.69042 24 ft 16 kts 171°
2026-05-05 01:08 27.91161 -82.69022 25 ft 15 kts 172°
2026-05-05 01:08 27.91060 -82.69005 24 ft 15 kts 170°
2026-05-05 01:09 27.90963 -82.68988 24 ft 14 kts 171°
2026-05-05 01:09 27.90870 -82.68971 24 ft 13 kts 171°
2026-05-05 01:09 27.90782 -82.68956 24 ft 12 kts 171°
2026-05-05 01:09 27.90698 -82.68941 24 ft 12 kts 171°
2026-05-05 01:10 27.90616 -82.68927 25 ft 12 kts 172°
2026-05-05 01:10 27.90538 -82.68914 24 ft 11 kts 171°
2026-05-05 01:10 27.90467 -82.68918 24 ft 9 kts 226°
2026-05-05 01:10 27.90467 -82.68957 24 ft 3 kts 292°
2026-05-05 01:11 27.90484 -82.68966 24 ft 3 kts 352°
2026-05-05 01:11 27.90517 -82.68975 24 ft 3 kts 320°
2026-05-05 01:11 27.90516 -82.68992 24 ft 2 kts 257°
2026-05-05 01:11 27.90508 -82.68999 26 ft 2 kts 214°
2026-05-05 01:12 27.90491 -82.68998 24 ft 2 kts 170°
2026-05-05 01:12 27.90487 -82.68997 24 ft 0 kts 170°